Weather in Krasninskiy

Russia / Chelyabinsk Oblast     53°55′04″N   59°40′01″E
temp.,
°C
wind,
m/s
gust,
m/s
humid.,
%
clouds,
%
prec.,
mm/h
press.,
hPa
HPBL,
m
14 april, wed
wed1423:00+8ssw33860 0.0 103848
02:00+6ssw35925 0.0 103786
05:00+5sw34925 0.0 103756
08:00+6wsw35875 0.0 1036147
11:00+11sw33575 0.0 1034383
14:00+15ssw33395 0.0 1032668
17:00+15ssw33365 0.0 1031672
20:00+11sw33565 0.0 103028
15 april, thu
thu1523:00+8sw34655 0.0 103048
02:00+6sw34715 0.0 103041
05:00+5sw34725 0.0 102949
08:00+6sw37655 0.0 1028152
11:00+13sw45395 0.0 1026331
14:00+16sw453155 0.0 1024657
17:00+17sw453053 0.0 1022737
20:00+12ssw354952 0.0 102153
16 april, fri
fri1623:00+10sw4756100 0.0 102189
02:00+9w2261100 0.0 101921
05:00+7nnw2264100 0.0 101910
08:00+9n12650 0.0 101950
11:00+14n23464 0.0 1018542
14:00+16ne234321 0.0 10171990
17:00+11ne787561 0.3 1019642
20:00+6ne6788100 0.4 1021506
17 april, sat
sat1723:00+5ne5788100 0.5 1022551
02:00+4ne4688100 0.0 1022463
05:00+3ne4589100 0.1 1022409
08:00+2ne3496100 0.2 1023305
11:00+5ene3364100 0.2 10231138
14:00+6nnw3568100 0.0 1021873
17:00+9n264519 0.0 10201728
20:00+6n5105014 0.0 1020291
18 april, sun
sun1823:00+3n38644 0.0 1021223
02:00+2nw367299 0.0 1021119
05:00+1nnw4107313 0.0 1022283
08:00+2nnw58595 0.0 10211050
11:00+5nw5848100 0.0 10201821
14:00+6nnw91043100 0.1 10202211
17:00−2nne121563100 1.0 10221492
20:00+1n8117067 0.1 1025919